SCP
0 0 0 0 0 0 0 0 0 0 0 0 0 0 0 0 0 0 0 1 1 1 1 1 1 1 1 2 2 2 2 2 2 1 1 1 1 1 1 1 1 1 1 1 1 1 0 0 0
0 0 0 0 0 0 0 0 0 0 0 0 0 0 0 0 0 0 0 1 1 1 1 1 1 1 1 2 2 2 2 2 1 1 1 1 1 1 1 1 1 1 1 1 1 0 0 0 0
0 0 0 0 0 0 0 0 0 0 0 0 0 0 0 0 0 0 1 1 1 1 1 1 1 1 1 1 2 2 2 1 1 1 1 1 1 1 1 1 1 1 1 0 0 0 0 0 0
0 0 0 0 0 0 0 0 0 0 0 0 0 0 0 0 0 0 1 1 1 1 1 1 1 1 1 1 1 1 1 1 1 1 1 1 1 1 1 1 1 1 0 0 0 0 0 0 0
0 0 0 0 0 0 0 0 0 0 0 0 0 0 0 0 0 1 1 1 1 1 1 1 1 1 1 1 1 1 1 1 1 1 1 1 1 1 1 1 1 0 0 0 0 0 0 0 0
0 0 0 0 0 0 0 0 0 0 0 0 0 0 1 1 0 1 1 2 2 1 1 1 1 1 1 1 1 1 1 1 1 1 1 1 1 1 1 1 0 0 0 0 0 0 0 0 0
0 0 0 0 0 0 0 0 0 0 0 0 0 1 1 1 1 1 1 2 2 1 1 1 1 1 1 1 1 1 1 1 1 1 1 1 1 1 1 1 0 0 0 0 0 0 0 0 0
0 0 0 0 0 0 0 0 0 0 0 0 1 1 1 1 1 1 2 2 2 1 1 1 1 1 1 1 1 1 1 1 1 1 1 1 1 1 1 0 0 0 0 0 0 0 0 0 0
0 0 0 0 0 0 0 0 0 0 0 1 1 1 1 1 1 1 2 2 2 1 1 1 1 1 1 1 1 1 1 1 1 1 1 1 0 0 0 0 0 0 0 0 0 1 1 0 0
0 0 0 0 0 0 0 0 0 0 0 1 1 1 1 2 1 2 2 2 2 1 1 1 1 1 1 1 1 1 1 1 1 1 1 0 0 0 0 0 0 0 0 0 0 1 1 0 0
0 0 0 0 0 0 0 0 0 0 0 1 1 2 2 2 2 2 2 1 1 1 1 1 1 1 1 1 1 1 1 1 1 1 1 0 0 0 0 0 0 0 0 0 0 0 0 0 0
0 0 0 0 0 0 0 0 0 0 0 0 1 2 3 2 2 1 1 1 1 1 1 1 1 1 1 1 1 1 1 1 1 1 0 0 0 0 0 0 0 0 0 0 0 0 0 0 0
0 0 0 0 0 0 0 0 0 0 0 1 2 2 3 2 2 1 1 1 1 1 1 1 1 1 1 1 1 1 1 1 1 0 0 0 0 0 0 0 0 0 0 0 0 0 0 0 0
0 0 0 0 0 0 0 0 0 0 1 1 2 2 3 3 2 1 1 1 0 1 1 1 1 1 1 1 1 1 1 1 0 0 0 0 0 0 0 0 0 0 0 0 0 0 0 0 0
0 0 0 0 0 0 0 0 0 1 1 1 2 2 2 2 2 1 1 1 1 1 1 1 1 1 1 1 1 1 1 1 0 0 0 0 0 0 0 0 0 0 0 1 1 1 0 0 0
0 0 0 0 0 0 0 0 1 1 1 1 1 2 2 2 2 2 1 1 1 1 1 1 1 1 1 1 1 1 1 1 0 0 1 1 1 1 0 0 0 0 0 1 1 1 0 0 0
0 0 0 0 0 0 0 1 1 1 2 2 2 2 2 2 2 2 2 2 1 1 1 1 1 1 1 1 1 1 1 1 1 1 1 1 1 1 1 0 0 0 1 1 1 1 0 0 0
0 0 0 0 0 0 1 1 2 2 2 2 2 2 2 2 2 3 3 2 2 2 2 2 2 2 2 2 2 2 1 1 1 1 1 1 1 1 1 1 0 1 1 1 1 0 0 0 0
0 0 0 0 0 1 1 1 2 2 2 2 2 2 2 2 2 3 3 3 2 2 2 2 2 2 3 3 3 2 2 2 2 1 1 1 1 1 1 1 1 1 1 1 0 0 0 0 0
0 0 0 0 1 1 1 2 2 2 2 2 2 3 3 3 2 2 3 3 3 3 3 3 3 3 3 4 3 3 2 2 2 2 2 2 1 1 1 1 1 1 1 1 0 0 0 0 0
0 0 0 0 1 1 1 2 2 2 2 3 3 4 3 3 2 2 3 3 3 3 3 3 3 4 4 4 4 3 3 2 2 2 2 2 1 1 1 1 1 1 1 1 1 0 0 0 0
0 0 0 0 0 1 1 1 2 2 2 3 4 4 4 3 2 2 2 3 3 4 4 4 4 4 4 4 4 4 4 4 3 3 3 2 1 1 1 1 1 1 1 1 0 0 0 0 0
0 0 0 0 0 0 1 1 2 2 2 3 3 4 4 2 2 2 2 3 3 4 4 4 4 4 4 4 4 5 5 5 4 3 2 2 1 0 0 0 0 0 0 0 0 0 0 0 0
0 0 0 0 0 0 0 1 2 2 2 2 2 3 3 2 2 2 2 3 3 3 3 3 4 5 5 4 4 5 6 6 4 3 2 1 0 0 0 0 0 0 0 0 0 0 0 0 0
0 0 0 0 0 0 1 1 2 2 2 2 2 2 2 2 2 2 2 2 2 2 2 2 4 4 4 3 3 4 5 5 4 2 1 0 0 0 0 0 0 0 0 0 0 0 0 0 0
0 0 0 0 0 0 1 1 2 1 2 2 2 2 1 1 1 1 1 1 1 1 1 2 3 4 3 2 2 2 3 3 2 1 0 0 0 0 0 0 0 0 0 0 0 0 0 0 0
0 0 0 0 0 0 1 1 1 1 1 2 1 1 1 1 1 1 0 0 0 0 1 1 2 2 2 1 1 1 1 1 0 0 0 0 0 0 0 0 0 0 0 0 0 0 0 0 0
0 0 0 0 0 0 1 1 1 1 1 1 1 1 0 0 0 0 0 0 0 0 0 0 1 1 0 0 0 0 0 0 0 0 0 0 0 0 0 0 0 0 0 0 0 0 0 0 0
0 0 0 0 0 0 0 1 1 1 1 1 1 0 0 0 0 0 0 0 0 0 0 0 0 0 0 0 0 0 0 0 0 0 0 0 0 0 0 0 0 0 0 0 0 0 0 0 0
0 0 0 0 0 0 0 1 1 1 1 1 1 0 0 0 0 0 0 0 0 0 0 0 0 0 0 0 0 0 0 0 0 0 0 0 0 0 0 0 0 0 0 0 0 0 0 0 0
Wind_Speed
7 2 3 3 6 5 2 3 2 2 3 2 2 3 4 5 5 4 2 10 15 15 13 16 18 17 17 17 17 18 18 18 18 17 17 16 15 15 14 14 13 13 14 14 13 13 13 13 12
3 1 4 5 5 1 5 3 1 3 4 1 1 1 1 2 1 5 5 9 15 14 11 13 18 17 18 18 17 17 18 18 17 17 16 16 15 14 13 13 13 13 12 12 12 12 12 11 11
3 3 5 5 3 5 4 2 2 5 5 1 1 1 1 2 4 6 6 13 14 13 10 13 20 18 18 18 17 17 18 18 17 16 16 15 14 13 12 12 12 12 11 11 11 11 10 10 9
2 4 5 4 5 7 5 3 3 5 6 2 2 1 1 2 5 6 12 15 15 12 10 13 19 18 17 17 17 17 17 17 16 15 15 14 13 12 11 11 11 10 10 9 9 9 8 8 7
4 5 3 1 7 6 4 3 2 4 4 3 3 2 0 4 7 13 14 15 15 12 9 11 17 17 17 17 17 16 16 15 14 14 13 12 11 10 10 10 9 9 8 8 8 7 6 6 6
5 5 4 5 9 6 4 3 2 3 4 3 3 3 1 3 9 13 12 11 12 12 10 10 16 18 17 17 16 15 14 13 13 12 12 11 10 9 9 8 8 7 6 6 6 5 5 4 4
5 5 7 7 6 6 5 2 2 2 4 4 5 5 1 3 6 9 9 10 9 10 10 8 9 12 16 15 14 14 13 12 12 11 11 10 10 9 9 7 7 6 5 4 4 3 3 3 2
5 5 5 5 6 7 2 1 2 2 5 2 5 7 5 6 9 9 9 9 9 9 9 7 7 7 7 9 14 14 13 13 12 12 12 11 10 9 8 6 5 5 4 3 2 1 1 1 1
4 4 5 7 7 5 1 2 3 3 2 1 1 4 6 15 14 12 11 9 9 10 8 7 7 6 6 6 10 11 13 12 12 10 11 9 4 3 4 5 5 5 4 3 2 1 1 1 2
4 4 8 6 5 3 2 3 3 4 4 2 1 4 14 17 15 14 14 14 14 13 12 8 8 8 7 7 5 4 5 5 5 4 5 4 3 2 3 2 5 5 4 3 2 2 2 1 1
5 6 5 6 6 4 3 4 2 2 5 5 5 11 18 17 15 14 14 13 13 12 12 10 9 8 8 5 4 3 3 3 4 4 4 3 3 2 1 1 1 1 2 1 2 2 1 1 0
3 6 5 5 4 3 4 3 2 5 8 5 7 17 20 19 17 16 15 13 10 10 11 10 9 8 7 5 5 4 4 4 3 4 4 3 2 2 1 1 1 0 0 0 1 1 1 1 1
5 5 5 6 7 5 4 5 4 8 8 3 9 16 18 17 14 11 10 10 10 11 11 11 10 9 7 5 5 5 4 4 4 3 4 4 3 3 2 1 1 1 1 1 1 0 0 1 1
4 5 6 6 6 4 5 5 3 8 2 6 11 14 14 14 12 9 9 10 11 11 11 10 10 9 7 5 5 4 4 4 4 3 4 5 3 3 2 2 2 2 2 1 1 1 1 1 1
3 4 6 5 4 4 3 2 4 5 4 7 9 10 10 9 9 9 9 9 10 10 10 10 10 9 8 7 6 4 4 4 4 4 4 5 4 4 3 2 2 2 2 2 2 2 2 2 2
2 1 3 5 2 1 4 3 5 1 6 6 6 7 7 6 7 5 6 6 7 7 9 10 11 10 9 7 6 4 4 5 4 4 4 5 6 5 4 3 2 2 2 2 3 3 2 2 2
4 1 2 5 3 1 2 2 5 2 4 4 4 6 6 4 3 2 3 5 6 7 8 9 9 10 9 7 5 4 3 4 3 3 3 4 5 5 4 3 2 3 2 2 2 2 2 2 2
1 1 2 4 4 3 2 2 5 5 3 3 3 3 4 4 2 2 1 2 4 5 6 7 7 7 7 6 4 3 3 2 2 2 2 3 3 4 4 3 3 3 3 2 2 3 3 2 1
2 1 3 5 4 2 2 4 7 7 6 5 5 5 4 3 4 5 4 3 3 3 3 4 5 6 6 5 5 4 3 3 2 2 3 3 3 4 4 3 3 3 3 3 4 3 3 2 1
2 2 4 5 2 1 4 7 8 10 9 8 8 7 6 5 6 7 8 7 5 3 3 3 3 4 5 5 4 3 4 4 3 3 4 4 4 4 4 3 3 3 4 4 3 3 2 2 2
2 3 3 3 4 3 4 5 6 8 11 12 11 10 10 9 8 7 7 7 7 6 3 2 2 3 4 5 5 5 4 4 3 4 4 5 5 6 5 4 4 4 4 3 3 2 4 2 2
3 5 5 2 1 2 2 3 3 5 9 11 11 11 11 10 10 9 9 9 8 7 6 6 5 5 5 5 6 6 5 4 3 4 5 6 7 7 6 6 6 6 4 4 3 3 2 3 2
7 4 3 2 2 1 2 5 1 2 5 7 9 10 10 10 10 10 10 9 9 9 8 8 8 8 6 6 6 6 6 5 6 7 8 8 7 9 9 8 8 8 6 7 7 6 6 3 3
4 3 4 4 4 1 2 5 1 1 3 5 7 9 10 10 10 11 10 10 11 10 10 10 11 11 9 8 7 8 9 8 9 8 8 7 6 8 10 9 9 9 7 8 8 7 8 6 6
3 5 4 3 3 2 1 5 3 4 6 7 8 9 10 10 10 11 12 12 12 13 12 12 13 13 12 12 11 11 11 11 11 9 9 8 7 7 8 9 9 8 8 8 8 8 8 7 7
4 8 7 4 4 1 2 4 4 6 8 9 9 9 10 11 11 12 12 12 12 13 13 13 14 14 13 13 14 13 12 9 9 10 9 9 7 7 8 9 10 10 9 9 8 8 7 6 6
5 3 5 6 3 3 2 4 5 7 8 9 9 9 10 11 12 12 12 13 13 14 14 14 14 14 14 14 14 14 13 12 11 11 10 8 7 8 10 10 10 10 10 9 8 7 7 6 6
4 7 6 6 5 2 2 4 5 10 9 8 8 8 9 10 11 12 12 12 13 13 13 14 14 14 14 13 12 12 12 12 11 11 11 10 10 9 10 10 10 10 9 9 8 7 6 7 5
3 4 5 4 5 6 4 3 2 11 11 10 9 8 9 10 11 11 11 11 12 12 12 13 13 14 14 13 12 13 12 12 12 11 10 10 9 9 9 9 9 9 9 8 7 7 7 7 6
2 3 5 5 2 3 5 2 1 9 11 11 10 9 9 11 11 11 11 11 11 11 12 12 12 13 12 12 12 12 11 11 11 11 9 9 9 9 8 8 8 8 8 7 7 7 7 7 6
Wind_Direction
312 340 113 66 46 41 298 268 253 327 300 256 188 167 177 178 182 207 117 133 133 141 149 151 151 148 142 136 131 127 125 124 123 124 124 125 125 124 124 124 122 120 118 117 116 114 113 112 112
304 12 64 58 76 4 280 259 294 304 268 229 141 143 174 224 109 123 133 139 138 141 145 151 153 150 144 139 134 132 131 130 129 129 130 130 129 128 128 127 124 122 121 121 119 118 116 115 115
306 56 81 74 128 199 238 237 276 311 296 243 159 92 178 214 152 155 153 141 136 140 144 155 154 152 146 142 139 138 137 136 136 135 135 135 134 132 132 130 128 126 125 124 122 120 119 118 116
62 51 60 90 235 228 218 252 308 315 309 276 159 125 83 22 155 149 141 142 139 142 147 157 156 154 149 147 145 144 142 142 141 141 140 139 138 137 136 135 134 132 129 127 125 122 120 118 115
58 84 89 214 246 248 233 247 259 275 273 251 173 164 46 13 110 132 143 146 145 146 149 157 157 156 154 152 151 149 148 146 145 144 144 143 143 142 142 141 140 138 136 133 128 124 119 114 110
58 83 136 222 248 261 251 223 249 264 271 268 169 144 357 92 129 143 146 144 146 148 148 154 160 159 158 158 155 153 151 150 148 148 148 148 148 148 148 148 148 147 145 140 133 126 117 106 101
118 131 184 207 242 264 256 206 226 255 281 252 164 140 145 138 146 140 135 130 137 146 147 151 160 163 164 161 158 156 154 154 153 153 154 156 157 158 159 159 160 159 157 151 142 132 117 102 88
131 128 181 205 221 253 254 289 254 261 271 260 139 156 194 169 142 128 121 125 138 148 153 151 153 152 154 160 163 162 161 160 161 162 165 167 169 171 173 169 175 176 177 175 163 137 96 66 32
91 99 201 208 202 240 269 331 305 283 274 302 189 178 169 139 139 134 133 139 153 161 164 158 153 149 147 154 169 167 168 169 169 170 174 170 162 166 176 182 194 202 207 216 228 256 318 3 1
106 171 223 218 206 233 289 281 288 315 313 282 48 99 131 142 151 156 160 164 170 174 176 170 164 160 155 164 156 153 158 161 158 154 163 149 142 162 174 197 214 225 232 248 269 282 325 29 22
166 199 229 239 234 244 274 276 234 224 274 238 195 155 150 155 163 171 174 175 178 176 176 177 173 169 166 159 151 149 143 146 150 155 154 142 139 145 148 103 267 284 283 337 6 8 25 30 302
193 240 232 250 227 220 234 250 248 222 239 250 189 160 159 167 176 180 180 180 175 176 182 178 177 174 173 161 160 159 156 162 166 163 157 149 150 159 162 169 207 230 320 60 39 5 350 345 306
217 258 247 245 259 244 239 238 241 256 262 249 153 157 169 175 179 182 180 177 175 182 184 180 180 180 175 165 167 172 172 174 173 168 168 164 166 177 184 200 207 214 197 188 193 229 28 10 15
237 243 267 272 260 239 220 250 210 262 227 143 151 164 174 177 177 175 177 181 184 187 186 180 183 182 176 175 174 171 173 167 169 177 179 176 174 178 187 204 213 215 200 187 161 146 125 69 57
276 283 298 268 243 240 176 280 232 255 131 146 162 165 164 170 175 185 187 187 187 189 184 182 185 180 181 182 180 171 170 168 178 184 183 183 184 186 185 194 206 207 174 149 125 112 99 92 75
348 5 307 297 295 249 144 249 284 269 143 161 164 160 157 167 175 180 182 182 184 185 186 186 189 182 185 185 177 169 167 171 181 179 180 186 187 181 176 185 198 168 141 138 132 118 99 83 74
23 28 289 309 336 37 114 253 314 352 143 164 164 164 160 155 147 159 181 181 180 185 185 185 187 182 184 179 167 162 156 168 172 168 173 179 179 174 165 169 156 140 132 128 131 96 102 106 96
256 325 324 303 315 26 52 315 342 12 96 127 126 137 136 127 105 69 98 157 170 173 178 179 182 179 172 165 151 144 134 133 129 143 157 156 152 150 144 140 137 132 121 111 103 97 72 81 93
197 252 294 278 286 30 54 34 21 27 56 71 73 77 80 77 63 59 55 63 91 131 143 150 172 172 165 166 168 161 153 125 109 105 97 103 112 120 124 124 122 124 122 118 115 105 90 58 23
214 273 292 298 339 93 85 60 46 47 53 60 66 63 58 56 51 50 50 47 49 74 104 134 157 168 172 171 162 132 117 110 97 84 74 72 89 96 104 109 113 114 110 103 102 110 111 67 24
230 211 242 270 347 38 98 55 53 62 61 58 55 56 51 49 47 49 50 47 43 38 46 92 120 130 141 138 122 114 102 94 96 87 75 62 69 78 81 89 96 93 96 107 102 112 130 133 64
260 229 219 243 16 315 79 96 40 72 64 55 50 49 50 47 44 44 43 41 41 38 41 56 70 85 103 120 130 134 128 125 106 93 83 68 60 65 67 74 81 77 74 76 72 69 84 116 113
219 233 210 221 169 7 33 110 49 77 73 60 55 52 51 49 47 46 44 42 43 42 47 54 63 63 69 86 110 118 112 109 101 92 86 74 61 58 58 59 66 69 67 67 63 62 63 65 86
205 67 56 52 83 61 288 127 123 66 95 82 64 56 53 54 53 51 49 49 47 46 49 51 59 59 58 71 81 95 104 106 100 93 89 76 66 61 58 64 66 67 66 65 65 66 65 63 68
117 94 38 13 38 238 328 100 102 87 93 100 86 69 59 56 54 51 49 49 49 49 51 55 61 60 58 64 68 74 82 86 88 89 84 80 70 65 58 63 64 64 64 65 65 65 61 59 66
169 141 156 183 189 236 35 97 102 97 96 94 90 82 72 65 60 56 53 52 53 54 55 59 63 63 61 65 67 68 72 75 75 76 80 78 75 69 65 65 64 63 62 64 63 62 60 59 62
141 172 161 131 128 98 102 109 121 118 109 103 96 87 78 72 66 61 58 56 57 56 55 58 65 66 64 66 70 69 71 74 78 77 77 76 75 75 69 68 66 62 60 60 62 60 53 54 53
144 143 106 116 138 142 144 166 173 162 148 131 118 105 92 83 76 69 63 61 61 60 60 60 65 68 66 65 70 74 71 72 75 76 75 74 72 73 72 68 66 61 56 54 58 54 45 48 38
76 82 99 107 140 145 167 227 201 168 157 147 133 116 104 94 86 79 72 66 65 64 63 63 63 67 65 66 68 70 69 70 71 71 72 75 73 71 72 71 68 64 57 52 53 49 42 40 30
105 128 137 140 165 137 139 193 25 147 139 136 129 117 106 97 90 85 80 75 70 67 66 66 66 67 69 70 70 69 69 69 71 71 69 73 74 71 72 73 70 65 58 51 49 41 36 30 19